Weather History for Robinson, IL

Change the Weather History Date:

Tuesday, November 26, 2013

  Actual Average (KLWV) Record (KLWV)
Temperature  
Mean Temperature 34 °F 42 °F  
Max Temperature 41 °F 50 °F 69 °F (1990)
Min Temperature 27 °F 33 °F 18 °F (1991)
Degree Days  
Heating Degree Days 30 23  
Month to date heating degree days 463  
Since 1 July heating degree days 760  
Cooling Degree Days 0 0  
Month to date cooling degree days 0  
Year to date cooling degree days 1386  
Moisture  
Dew Point 28 °F    
Average Humidity 77    
Maximum Humidity 96    
Minimum Humidity 59    
Precipitation  
Precipitation 0.00 in 0.14 in 1.28 in (1979)
Month to date precipitation 3.40  
Year to date precipitation 39.92  
Sea Level Pressure  
Sea Level Pressure 30.10 in    
Wind  
Wind Speed 4 mph (NNW)    
Max Wind Speed 23 mph    
Max Gust Speed 33 mph    
Visibility 10 miles    
Events      
T = Trace of Precipitation, MM = Missing Value Source: NWS Daily Summary

Daily Weather History Graph

Daily Weather History Graph

Search for Another Location

Airport:

Trip Planner

Search our weather history database for the weather conditions in past years. The results will help you decide how hot, cold, wet, or windy it might be!

Date:

Astronomy

Nov. 26, 2013 Rise Set
Actual Time 6:45 AM CST 4:30 PM CST
Civil Twilight 6:16 AM CST 4:59 PM CST
Nautical Twilight 5:43 AM CST 5:32 PM CST
Astronomical Twilight 5:11 AM CST 6:04 PM CST
Moon No Moon Rise 12:33 PM CST (11/26)
Length of Visible Light 10h 42m
Length of Day
9h 44m
Last Quarter, 41% of the Moon is Illuminated
Nov 26
Last Quarter
Dec 2
New
Dec 9
First Quarter
Dec 17
Full
Dec 25
Last Quarter

Hourly Weather History & Observations

Time (CST) Temp. Windchill Dew Point Humidity Pressure Visibility Wind Dir Wind Speed Gust Speed Precip Events Conditions
12:15 AM 33.4 °F - 30.9 °F 90% 30.22 in 10.0 mi Calm Calm - N/A   Overcast
12:35 AM 33.4 °F - 30.9 °F 90% 30.21 in 10.0 mi Calm Calm - N/A   Overcast
12:55 AM 33.4 °F - 31.1 °F 91% 30.20 in 10.0 mi Calm Calm - N/A   Overcast
1:15 AM 33.4 °F - 31.1 °F 91% 30.20 in 10.0 mi Calm Calm - N/A   Overcast
1:35 AM 33.4 °F 30.4 °F 31.1 °F 91% 30.20 in 10.0 mi South 3.5 mph - N/A   Overcast
1:55 AM 33.8 °F - 30.0 °F 86% 30.20 in 10.0 mi Calm Calm - N/A   Overcast
2:15 AM 33.3 °F - 29.8 °F 87% 30.18 in 10.0 mi Calm Calm - N/A   Overcast
2:35 AM 33.1 °F - 29.3 °F 86% 30.17 in 10.0 mi Calm Calm - N/A   Mostly Cloudy
2:55 AM 32.2 °F - 29.7 °F 90% 30.17 in 10.0 mi Calm Calm - N/A   Mostly Cloudy
3:15 AM 32.4 °F - 29.7 °F 90% 30.17 in 10.0 mi Calm Calm - N/A   Overcast
3:35 AM 33.3 °F - 28.2 °F 82% 30.16 in 10.0 mi Calm Calm - N/A   Mostly Cloudy
3:55 AM 33.1 °F - 28.9 °F 85% 30.15 in 10.0 mi Calm Calm - N/A   Overcast
4:15 AM 32.7 °F - 28.9 °F 86% 30.15 in 10.0 mi Calm Calm - N/A   Scattered Clouds
4:35 AM 32.0 °F 28.7 °F 29.1 °F 89% 30.15 in 10.0 mi South 3.5 mph - N/A   Scattered Clouds
4:55 AM 32.0 °F - 29.3 °F 90% 30.13 in 10.0 mi Calm Calm - N/A   Clear
5:15 AM 31.8 °F - 29.1 °F 90% 30.12 in 10.0 mi Calm Calm - N/A   Clear
5:35 AM 31.1 °F - 29.3 °F 93% 30.11 in 10.0 mi Calm Calm - N/A   Scattered Clouds
5:55 AM 30.4 °F - 28.9 °F 94% 30.11 in 10.0 mi Calm Calm - N/A   Mostly Cloudy
6:15 AM 31.6 °F - 30.4 °F 95% 30.12 in 10.0 mi Calm Calm - N/A   Overcast
6:35 AM 32.0 °F - 31.1 °F 96% 30.13 in 10.0 mi Calm Calm - N/A   Overcast
6:55 AM 32.0 °F - 31.1 °F 96% 30.12 in 10.0 mi Calm Calm - N/A   Overcast
7:15 AM 32.4 °F - 30.9 °F 94% 30.13 in 10.0 mi Calm Calm - N/A   Overcast
7:35 AM 32.9 °F - 30.7 °F 92% 30.13 in 10.0 mi Calm Calm - N/A   Overcast
8:15 AM 33.8 °F - 28.8 °F 82% 30.14 in 10.0 mi Calm Calm - N/A   Overcast
8:35 AM 34.0 °F - 29.3 °F 83% 30.14 in 10.0 mi Calm Calm - N/A   Overcast
8:55 AM 34.3 °F - 29.5 °F 82% 30.13 in 10.0 mi Calm Calm - N/A   Overcast
9:15 AM 35.2 °F - 29.7 °F 80% 30.11 in 10.0 mi Calm Calm - N/A   Overcast
9:35 AM 35.6 °F 31.7 °F 28.9 °F 77% 30.11 in 10.0 mi NNW 4.6 mph - N/A   Overcast
9:55 AM 36.1 °F 33.5 °F 28.9 °F 75% 30.12 in 10.0 mi North 3.5 mph - N/A   Overcast
10:15 AM 36.5 °F 33.9 °F 27.9 °F 71% 30.12 in 10.0 mi North 3.5 mph - N/A   Overcast
10:35 AM 36.5 °F 33.9 °F 28.0 °F 71% 30.12 in 10.0 mi North 3.5 mph - N/A   Overcast
10:55 AM 37.0 °F 31.6 °F 28.8 °F 72% 30.10 in 10.0 mi NNW 6.9 mph - N/A   Overcast
11:15 AM 37.4 °F 32.1 °F 28.6 °F 70% 30.07 in 10.0 mi North 6.9 mph - N/A   Mostly Cloudy
11:35 AM 37.4 °F 34.9 °F 28.4 °F 70% 30.07 in 10.0 mi NNW 3.5 mph - N/A   Mostly Cloudy
11:55 AM 38.1 °F 34.6 °F 28.0 °F 67% 30.07 in 10.0 mi North 4.6 mph - N/A   Overcast
12:15 PM 38.3 °F 34.8 °F 27.7 °F 66% 30.06 in 10.0 mi North 4.6 mph - N/A   Overcast
12:35 PM 38.3 °F 35.9 °F 27.9 °F 66% 30.05 in 10.0 mi NNW 3.5 mph - N/A   Overcast
12:55 PM 38.8 °F 34.6 °F 27.9 °F 65% 30.04 in 10.0 mi NNW 5.8 mph - N/A   Overcast
1:15 PM 39.7 °F 34.9 °F 27.9 °F 63% 30.03 in 10.0 mi NNW 6.9 mph - N/A   Overcast
1:35 PM 40.1 °F 34.7 °F 27.5 °F 61% 30.03 in 10.0 mi NW 8.1 mph - N/A   Mostly Cloudy
1:55 PM 41.5 °F 35.4 °F 28.0 °F 59% 30.03 in 10.0 mi NNW 10.4 mph - N/A   Scattered Clouds
2:15 PM 41.0 °F 34.7 °F 28.0 °F 60% 30.02 in 10.0 mi NNW 10.4 mph - N/A   Clear
2:35 PM 40.3 °F 34.4 °F 28.2 °F 62% 30.01 in 10.0 mi NNW 9.2 mph - N/A   Mostly Cloudy
2:55 PM 40.3 °F 34.9 °F 28.4 °F 63% 30.02 in 10.0 mi NNW 8.1 mph - N/A   Overcast
3:15 PM 40.1 °F 35.3 °F 28.4 °F 63% 30.02 in 10.0 mi NNW 6.9 mph - N/A   Overcast
3:35 PM 39.7 °F 35.6 °F 29.1 °F 66% 30.02 in 10.0 mi NW 5.8 mph - N/A   Overcast
4:00 PM 39.2 °F 31.6 °F 31.8 °F 75% 30.02 in 10.0 mi NNW 12.7 mph 16.1 mph N/A   Overcast
4:15 PM 37.9 °F 29.6 °F 30.7 °F 75% 30.03 in 10.0 mi NNW 13.8 mph 19.6 mph N/A   Overcast
4:35 PM 37.6 °F 28.8 °F 30.2 °F 75% 30.04 in 10.0 mi NNW 15.0 mph 19.6 mph N/A   Overcast
4:55 PM 37.4 °F 29.3 °F 30.7 °F 77% 30.05 in 10.0 mi NNW 12.7 mph - N/A   Overcast
5:15 PM 37.4 °F 30.3 °F 30.2 °F 75% 30.05 in 10.0 mi NNW 10.4 mph - N/A   Overcast
5:35 PM 37.4 °F 29.8 °F 29.8 °F 74% 30.05 in 10.0 mi NNW 11.5 mph - N/A   Overcast
5:55 PM 37.4 °F 29.3 °F 29.7 °F 74% 30.06 in 10.0 mi NNW 12.7 mph 16.1 mph N/A   Overcast
6:15 PM 37.0 °F 29.8 °F 26.6 °F 66% 30.07 in 10.0 mi NNW 10.4 mph 25.3 mph N/A   Overcast
6:35 PM 36.5 °F 29.2 °F 28.4 °F 72% 30.08 in 10.0 mi NW 10.4 mph - N/A   Overcast
6:55 PM 35.8 °F 26.9 °F 28.8 °F 76% 30.08 in 10.0 mi NNW 13.8 mph 19.6 mph N/A   Overcast
7:15 PM 35.6 °F 25.5 °F 28.0 °F 74% 30.09 in 10.0 mi NNW 17.3 mph 23.0 mph N/A   Overcast
7:35 PM 35.2 °F 25.8 °F 28.2 °F 76% 30.09 in 10.0 mi NNW 15.0 mph - N/A   Overcast
7:55 PM 34.9 °F 24.9 °F 28.4 °F 77% 30.09 in 10.0 mi NNW 16.1 mph 23.0 mph N/A   Overcast
8:15 PM 34.7 °F 25.9 °F 28.2 °F 77% 30.09 in 10.0 mi NNW 12.7 mph 21.9 mph N/A   Overcast
8:35 PM 34.3 °F 25.5 °F 28.0 °F 78% 30.10 in 10.0 mi NNW 12.7 mph 21.9 mph N/A   Overcast
8:55 PM 34.2 °F 24.4 °F 27.7 °F 77% 30.10 in 10.0 mi NNW 15.0 mph 18.4 mph N/A   Overcast
9:15 PM 34.0 °F 24.2 °F 26.6 °F 74% 30.10 in 10.0 mi NNW 15.0 mph 18.4 mph N/A   Overcast
9:35 PM 32.9 °F 20.4 °F 24.4 °F 71% 30.11 in 10.0 mi NNW 23.0 mph 33.4 mph N/A   Overcast
9:55 PM 32.0 °F 22.5 °F 23.7 °F 71% 30.12 in 10.0 mi NNW 12.7 mph 20.7 mph N/A   Overcast
10:15 PM 31.8 °F 20.2 °F 23.0 °F 70% 30.11 in 10.0 mi NNW 18.4 mph 25.3 mph N/A   Overcast
10:35 PM 31.1 °F 20.1 °F 22.6 °F 71% 30.12 in 10.0 mi NW 16.1 mph 23.0 mph N/A   Overcast
10:55 PM 30.4 °F 18.4 °F 21.0 °F 68% 30.13 in 10.0 mi NNW 18.4 mph 23.0 mph N/A   Overcast
11:15 PM 29.3 °F 17.7 °F 19.8 °F 68% 30.12 in 10.0 mi NNW 16.1 mph 23.0 mph N/A   Overcast
11:35 PM 28.4 °F 17.5 °F 19.8 °F 70% 30.13 in 10.0 mi NW 13.8 mph 21.9 mph N/A   Scattered Clouds
11:55 PM 27.7 °F 17.1 °F 19.2 °F 71% 30.12 in 10.0 mi NNW 12.7 mph 18.4 mph N/A   Scattered Clouds